Weather in Annapolis

United States     38°58′41″N   76°29′34″W
temp.,
°C
wind,
m/s
gust,
m/s
humid.,
%
clouds,
%
prec.,
mm/h
press.,
hPa
HPBL,
m
28 june, tue
tue2823:00+23nw613542 0.0 1017467
02:00+20nnw613540 0.0 1019568
05:00+18nnw49534 0.0 1020368
08:00+20nnw49540 0.0 1022548
11:00+24n56397 0.0 10221646
14:00+25ne3437100 0.0 10221416
17:00+25e334239 0.0 10211036
20:00+22sse226076 0.0 102274
29 june, wed
wed2923:00+20s1258100 0.0 102330
02:00+19sw2360100 0.0 102387
05:00+18sw236299 0.0 102385
08:00+20sw34620 0.0 1024200
11:00+26s45450 0.0 1024725
14:00+28s56462 0.0 10221180
17:00+27sse675422 0.0 1020543
20:00+24sse6117010 0.1 1021275
30 june, thu
thu3023:00+22s410817 0.1 1022254
02:00+19sw35892 0.5 1022120
05:00+20nw22870 0.0 102260
08:00+22n24710 0.0 1023215
11:00+27ne23480 0.0 1023622
14:00+29ese33420 0.0 10221191
17:00+28se45450 0.0 1020444
20:00+26se23600 0.0 102043
1 july, fri
fri123:00+23s35710 0.0 102187
02:00+23s2579100 0.0 1019124
05:00+22ssw310830 0.0 1019276
08:00+24sw37760 0.0 1019338
11:00+29ssw465943 0.0 1018498
14:00+32ssw475029 0.0 1017885
17:00+30sse695753 0.0 1015350
20:00+27sse466592 0.0 1015106
2 july, sat
sat223:00+25s357737 0.1 101691
02:00+24ssw3117299 0.1 1015256
05:00+23sw237989 0.7 101570
08:00+24sw2582100 2.1 1016258
11:00+28sw2463100 0.0 1016594
14:00+31e135489 0.6 10151448
17:00+23wnw71095100 10.4 1014547
20:00+22nne1191100 19.6 1016114